Marrakech, Morocco

5:23 AM WET on February 14, 2016 (GMT +0000)
Menara

Weather History for GMMX - November, 2013

Change the Weather History Date:

Monday, November 4, 2013

  Actual Average Record
Temperature  
Mean Temperature 72 °F -  
Max Temperature 84 °F 69 °F 86 °F (1996)
Min Temperature 60 °F 48 °F 47 °F (2015)
Cooling Degree Days 7    
Growing Degree Days 22 (Base 50)    
Moisture  
Dew Point 50 °F    
Average Humidity 46    
Maximum Humidity 73    
Minimum Humidity 19    
Precipitation  
Precipitation 0.00 in 0.05 in - ()
Sea Level Pressure  
Sea Level Pressure 30.22 in    
Wind  
Wind Speed 5 mph ()    
Max Wind Speed 14 mph    
Max Gust Speed -    
Visibility 6.0 miles    
Events      
Averages and records for this station are not official NWS values.
T = Trace of Precipitation, MM = Missing Value Source: Averaged Metar Reports

Daily Weather History Graph

Daily Weather History Graph

Search for Another Location

Airport or City:

Trip Planner

Search our weather history database for the weather conditions in past years. The results will help you decide how hot, cold, wet, or windy it might be!

Date:

Astronomy

Nov. 04, 2013 Rise Set
Actual Time 6:50 AM WET 5:40 PM WET
Civil Twilight 6:25 AM WET 6:05 PM WET
Nautical Twilight 5:56 AM WET 6:34 PM WET
Astronomical Twilight 5:27 AM WET 7:02 PM WET
Moon 7:43 AM WET (11/4) 6:37 PM WET (11/4)
Length of Visible Light 11h 40m
Length of Day
10h 49m
New Moon, 1% of the Moon is Illuminated
Nov 4
New Moon
Nov 10
First Quarter
Nov 17
Full
Nov 25
Last Quarter
Dec 3
New

Hourly Weather History & Observations

Time (WET) Temp. Dew Point Humidity Pressure Visibility Wind Dir Wind Speed Gust Speed Precip Events Conditions
12:00 AM 66 °F 56 °F 62% 30.27 in 6 mi WSW 4.6 mph - -   Overcast
12:00 AM 66.2 °F 57.2 °F 73% 30.30 in 6.2 mi WSW 3.5 mph - N/A   Mostly Cloudy
12:30 AM 66.2 °F 57.2 °F 73% 30.30 in 6.2 mi Variable 2.3 mph - N/A   Mostly Cloudy
1:00 AM 66.2 °F 53.6 °F 64% 30.30 in 6.2 mi SW 3.5 mph - N/A   Mostly Cloudy
1:30 AM 66.2 °F 55.4 °F 68% 30.30 in 6.2 mi Calm Calm - N/A   Mostly Cloudy
2:00 AM 66.2 °F 53.6 °F 64% 30.27 in 6.2 mi ENE 1.2 mph - N/A   Mostly Cloudy
2:30 AM 66.2 °F 51.8 °F 60% 30.27 in 6.2 mi ENE 3.5 mph - N/A   Mostly Cloudy
3:00 AM 66 °F 52 °F 51% 30.21 in 6 mi ENE 4.6 mph - -   Partly Cloudy
3:00 AM 66.2 °F 51.8 °F 60% 30.24 in 6.2 mi ENE 5.8 mph - N/A   Mostly Cloudy
3:30 AM 66.2 °F 53.6 °F 64% 30.24 in 6.2 mi East 4.6 mph - N/A   Mostly Cloudy
4:00 AM 66.2 °F 53.6 °F 64% 30.21 in 6.2 mi ESE 3.5 mph - N/A   Mostly Cloudy
4:30 AM 66.2 °F 53.6 °F 64% 30.21 in 6.2 mi East 4.6 mph - N/A   Mostly Cloudy
5:00 AM 64.4 °F 53.6 °F 68% 30.21 in 6.2 mi East 4.6 mph - N/A   Mostly Cloudy
5:30 AM 64.4 °F 53.6 °F 68% 30.21 in 6.2 mi East 4.6 mph - N/A   Mostly Cloudy
6:00 AM 63 °F 53 °F 60% 30.20 in 6 mi East 4.6 mph - -   Partly Cloudy
6:00 AM 62.6 °F 51.8 °F 68% 30.21 in 6.2 mi East 4.6 mph - N/A   Mostly Cloudy
6:30 AM 64.4 °F 53.6 °F 68% 30.24 in 6.2 mi ESE 4.6 mph - N/A   Mostly Cloudy
7:00 AM 64.4 °F 51.8 °F 64% 30.24 in 6.2 mi SSE 4.6 mph - N/A   Mostly Cloudy
7:30 AM 64.4 °F 51.8 °F 64% 30.24 in 6.2 mi Variable 1.2 mph - N/A   Mostly Cloudy
8:00 AM 64.4 °F 53.6 °F 68% 30.24 in 6.2 mi East 3.5 mph - N/A   Mostly Cloudy
8:30 AM 66.2 °F 53.6 °F 64% 30.24 in 6.2 mi East 6.9 mph - N/A   Mostly Cloudy
9:00 AM 68 °F 53 °F 48% 30.20 in 6 mi East 5.8 mph - -   Mostly Cloudy
9:00 AM 68.0 °F 53.6 °F 60% 30.24 in 6.2 mi East 5.8 mph - N/A   Mostly Cloudy
9:30 AM 69.8 °F 53.6 °F 56% 30.24 in 6.2 mi ENE 6.9 mph - N/A   Mostly Cloudy
10:00 AM 73.4 °F 51.8 °F 47% 30.24 in 6.2 mi East 8.1 mph - N/A   Mostly Cloudy
10:30 AM 75.2 °F 53.6 °F 47% 30.24 in 6.2 mi ENE 5.8 mph - N/A   Scattered Clouds
11:00 AM 77.0 °F 48.2 °F 36% 30.24 in 6.2 mi ENE 6.9 mph - N/A   Scattered Clouds
11:30 AM 78.8 °F 48.2 °F 34% 30.21 in 6.2 mi NNE 8.1 mph - N/A   Scattered Clouds
12:00 PM 80 °F 45 °F 19% 30.14 in 6 mi NNE 9.2 mph - -   Scattered Clouds
12:00 PM 80.6 °F 44.6 °F 28% 30.21 in 6.2 mi NNE 10.4 mph - N/A   Scattered Clouds
12:30 PM 82.4 °F 42.8 °F 25% 30.21 in 6.2 mi NNE 9.2 mph - N/A   Scattered Clouds
1:00 PM 82.4 °F 42.8 °F 25% 30.21 in 6.2 mi NNE 8.1 mph - N/A   Scattered Clouds
1:30 PM 84.2 °F 44.6 °F 25% 30.18 in 6.2 mi NNE 8.1 mph - N/A   Scattered Clouds
2:00 PM 82.4 °F 48.2 °F 30% 30.21 in 6.2 mi North 13.8 mph - N/A   Scattered Clouds
2:30 PM 82.4 °F 48.2 °F 30% 30.18 in 6.2 mi NNE 9.2 mph - N/A   Scattered Clouds
3:00 PM 83 °F 49 °F 20% 30.11 in 6 mi NE 9.2 mph - -   Scattered Clouds
3:00 PM 82.4 °F 48.2 °F 30% 30.18 in 6.2 mi NE 9.2 mph - N/A   Scattered Clouds
3:30 PM 82.4 °F 48.2 °F 30% 30.18 in 6.2 mi NE 8.1 mph - N/A   Scattered Clouds
4:00 PM 82.4 °F 48.2 °F 30% 30.18 in 6.2 mi NNE 9.2 mph - N/A   Scattered Clouds
4:30 PM 82.4 °F 48.2 °F 30% 30.18 in 6.2 mi NE 5.8 mph - N/A   Scattered Clouds
5:00 PM 82.4 °F 46.4 °F 28% 30.18 in 6.2 mi ENE 5.8 mph - N/A   Scattered Clouds
5:30 PM 80.6 °F 46.4 °F 30% 30.18 in 6.2 mi NE 4.6 mph - N/A   Scattered Clouds
6:00 PM 78 °F 47 °F 23% 30.12 in 6 mi NNE 3.5 mph - -   Scattered Clouds
6:00 PM 78.8 °F 46.4 °F 32% 30.18 in 5.6 mi NNE 3.5 mph - N/A   Scattered Clouds
6:30 PM 78.8 °F 48.2 °F 34% 30.18 in 4.3 mi North 2.3 mph - N/A   Scattered Clouds
7:00 PM 77.0 °F 46.4 °F 34% 30.21 in 4.3 mi North 4.6 mph - N/A   Scattered Clouds
7:30 PM 75.2 °F 46.4 °F 36% 30.21 in 5.6 mi NNE 4.6 mph - N/A   Scattered Clouds
8:00 PM 73.4 °F 46.4 °F 38% 30.21 in 4.3 mi East 5.8 mph - N/A   Scattered Clouds
8:30 PM 73.4 °F 44.6 °F 36% 30.21 in 6.2 mi East 5.8 mph - N/A   Partly Cloudy
9:00 PM 73 °F 46 °F 28% 30.18 in 6 mi ESE 5.8 mph - -   Scattered Clouds
9:00 PM 73.4 °F 46.4 °F 38% 30.24 in 6.2 mi ESE 5.8 mph - N/A   Partly Cloudy
9:30 PM 71.6 °F 46.4 °F 41% 30.24 in - NE 4.6 mph - N/A   Clear
10:00 PM 69.8 °F 46.4 °F 43% 30.24 in - ENE 4.6 mph - N/A   Clear
10:30 PM 68.0 °F 46.4 °F 46% 30.24 in - NE 5.8 mph - N/A   Clear
11:00 PM 68.0 °F 48.2 °F 49% 30.24 in - East 5.8 mph - N/A   Clear
11:30 PM 66.2 °F 46.4 °F 49% 30.24 in - ESE 6.9 mph - N/A   Clear